Погода в Кожмудоре

Россия / Республика Коми     62°08′34″N   50°16′29″E
темп.,
°C
ветер,
м/с
пор.,
м/с
влажн.,
%
обл.,
%
осадки,
мм/ч
давл.,
гПа
погр.,
м
15 мая, сб
сб1500:00+15юз116389 0.0 101411
03:00+13юз1267100 0.0 101419
06:00+17зюз3655100 0.0 1014248
09:00+19зюз3545100 0.0 1014784
12:00+16з4760100 0.2 1016417
15:00+15юз267698 0.4 1015302
18:00+18сз12634 0.0 1013239
21:00+14св2279100 0.0 101223
16 мая, вс
вс1600:00+13в2779100 0.0 1011152
03:00+13ююв2385100 0.0 101173
06:00+16ю2588100 0.1 1010300
09:00+22ююз47560 0.2 10091248
12:00+25юз6103742 0.0 10082829
15:00+23юз41043100 0.0 10072270
18:00+19юз3105822 0.3 1007417
21:00+15ююз2984100 1.5 1007179
17 мая, пн
пн1700:00+15юз412835 0.0 1008508
03:00+13ююз39954 0.0 1008328
06:00+16юз488286 0.0 1008631
09:00+16зюз5975100 0.5 10091239
12:00+14зюз4977100 0.3 10111036
15:00+12з4980100 0.5 1013946
18:00+12з41084100 0.1 1015677
21:00+11з4991100 0.1 1016638
18 мая, вт
вт1800:00+11сз3789100 0.0 1018531
03:00+10сз3690100 0.0 1019432
06:00+11с2380100 0.0 1021529
09:00+15св2261100 0.0 1022916
12:00+20в22440 0.0 10221344
15:00+21вюв22385 0.0 10211597
18:00+20ююв234486 0.0 10211088
21:00+14юв226797 0.0 102115
19 мая, ср
ср1900:00+12юв2381100 0.0 102265
03:00+12ююв21085100 0.0 1022217
06:00+15ююв3969100 0.0 1021368
09:00+21ююв4650100 0.0 1020716
12:00+25ю46395 0.0 10181316
15:00+27ю56353 0.0 10172055
18:00+25ю47410 0.0 10151026
21:00+18ююв310670 0.0 1015207